Location: Kadirleryakas?
(36.1833°N, 29.6833°E)
Time: 16:22:43
(UTC+00:00)

Daily predictions for brighter satellites

Satellite Brightness Start Highest point End
(mag) Time Altitude Azimuth Time Altitude Azimuth Time Altitude Azimuth
FALCON 9 R/B 4.1 15:40:38 10° WSW 15:45:45 38° S 16:01:40 10° ESE
Atlas Centaur 2 3.4 15:54:01 10° WSW 16:01:55 56° S 16:08:52 10° ESE
Cosmos 2344 4.4 15:57:41 10° S 16:05:01 30° ESE 16:11:15 10° NE
Cosmos 1725 Rocket 4.2 15:58:46 10° N 16:05:02 82° W 16:11:19 10° S
SL-08 R/B 4.5 16:05:14 10° N 16:11:23 88° E 16:17:27 10° S
Cosmos 2151 Rocket 3.7 16:11:28 10° N 16:15:59 88° WSW 16:20:27 10° S
Cosmos 2297 Rocket 2.3 16:10:57 10° SSW 16:16:36 90° W 16:22:17 10° NNE
Cosmos 44 Rocket 3.3 16:12:33 10° SSW 16:17:20 66° ESE 16:22:18 10° NE
USA 306 2.0 16:17:03 10° NNW 16:19:02 23° NNE 16:19:45 18° ENE
YAOGAN 1 2.6 16:15:04 10° SSE 16:19:11 53° ENE 16:23:20 10° N
Cosmos 1975 Rocket 4.1 16:15:45 10° SE 16:19:15 24° E 16:22:45 10° NE
PSLV R/B 4.1 16:17:04 10° SE 16:20:44 32° ENE 16:24:23 10° N
SPOT 1/Viking Rocket 3.7 16:17:18 10° S 16:22:24 79° WSW 16:27:33 10° NNW
Cosmos 1455 Rocket 3.7 16:20:03 10° NNE 16:23:52 31° ENE 16:27:42 10° SE
Aureole 3 Rocket 2.8 16:21:37 10° N 16:24:52 37° ENE 16:27:44 10° SSE
CZ-4C R/B 4.0 16:22:47 10° W 16:25:51 19° NW 16:29:24 10° N
Cosmos 2061 Rocket 4.0 16:20:04 10° N 16:26:27 86° E 16:32:43 10° S
Helios 1A Rocket 3.9 16:24:49 12° ENE 16:26:38 17° E 16:28:53 10° SE
Cosmos 2228 4.3 16:24:31 10° NNE 16:27:26 18° ENE 16:30:20 10° ESE
COSMO-SKYMED 1 2.3 16:23:36 10° NNE 16:27:43 81° E 16:31:49 10° S
CZ-2D R/B 3.3 16:26:12 10° SSE 16:29:59 59° ENE 16:33:54 10° N
Delta 2 Rocket 2.5 16:27:13 10° W 16:30:15 82° S 16:32:28 18° E
Meteor 2-1 Rocket 4.3 16:25:32 10° N 16:31:25 88° E 16:37:21 10° S
Okean 1 Rocket 3.2 16:34:48 10° N 16:39:10 76° W 16:43:29 10° S
Okean 2 Rocket 3.9 16:39:56 10° NNW 16:44:12 54° W 16:48:26 10° S
Cosmos 2263 Rocket 2.8 16:40:04 10° SSE 16:45:08 35° ESE 16:49:56 11° NE
Cosmos 1602 3.0 16:43:01 10° S 16:45:41 48° E 16:47:50 14° NNE
SJ-6B 3.4 16:46:06 25° E 16:46:37 27° ENE 16:49:33 10° NNE
Cosmos 1980 3.6 16:46:25 10° NNW 16:52:04 69° ENE 16:57:40 10° SSE
ATLAS 5 CENTAUR R/B 4.3 16:48:12 10° WNW 16:52:20 27° WSW 16:57:11 10° S
COSMOS 2428 3.8 16:49:39 10° NW 16:55:07 47° WSW 17:00:32 10° S
Cosmos 2237 Rocket 2.1 16:51:41 10° NNW 16:57:22 70° ENE 17:03:02 10° SSE
SeaSat 1 3.4 16:54:17 10° S 16:58:58 49° WSW 17:03:43 10° NW
Meteor 1-27 4.2 16:53:47 10° N 16:59:36 75° E 17:05:25 10° SSE
Resurs 01 Rocket 1.5 16:58:17 10° SSE 17:02:39 75° ENE 17:07:03 10° N
Cosmos 1125 Rocket 4.1 17:00:04 10° NNW 17:05:08 58° WSW 17:10:13 10° S
SPOT 5 4.2 17:06:50 22° NE 17:06:50 22° NE 17:09:31 10° NNE
SEDSat Delta rocket 4.4 17:03:51 10° WSW 17:07:20 26° SSW 17:09:21 18° SSE
USA 234 3.6 17:03:03 10° SSE 17:09:32 65° SW 17:16:02 10° NW
NOAA 6 4.4 17:10:25 10° S 17:15:29 65° WSW 17:20:38 10° NNW
Cosmos 2227 Rocket 2.4 17:10:18 10° SSW 17:15:54 70° WNW 17:21:33 10° NNE
Cosmos 783 Rocket 4.4 17:12:49 10° S 17:18:04 76° ESE 17:22:45 13° NNE
Tsikada Rocket 4.3 17:13:42 10° SSE 17:19:21 40° E 17:25:01 10° NNE
SL-16 R/B 3.2 17:18:09 10° N 17:22:03 28° NE 17:22:03 28° NE
Tiangong -0.6 17:20:53 10° WNW 17:23:22 30° NNW 17:23:22 30° NNW
Cosmos 1346 Rocket 2.9 17:22:56 10° SSW 17:26:30 63° W 17:28:21 26° N
Gbstr 26 Del rocket 4.4 17:34:02 10° WSW 17:40:40 68° NW 17:44:25 32° NE
Haruka 3.2 17:37:22 10° WSW 17:42:50 46° S 17:42:50 46° S
Atlas Centaur 2 3.2 17:43:10 10° W 17:50:24 46° SSW 17:51:57 40° SSE
NOSS 3-4 (A) 3.9 17:44:39 10° NNW 17:51:52 87° WSW 17:55:55 34° SSE
NOSS 3-4 (C) 3.9 17:44:57 10° NNW 17:52:09 88° WSW 17:56:04 35° SSE
CSL-04 Rocket 3.9 17:53:36 56° N 17:53:36 56° N 17:57:44 10° N
Cosmos 2150 Rocket 4.3 17:47:44 10° NNW 17:52:48 64° WSW 17:54:26 41° SSW
Cosmos 2034 Rocket 3.9 17:47:49 10° N 17:54:01 89° W 17:59:43 13° S
Cosmos 2298 Rocket 4.3 17:50:47 10° NNW 17:56:01 64° WSW 17:57:29 45° SSW
BREEZE M DEB (TANK) 4.0 17:37:16 10° SW 17:57:26 76° SE 17:58:50 61° ENE
DNEPR-1 R/B 4.5 18:05:48 10° NNW 18:10:09 63° NW 18:10:09 63° NW
Cosmos 2219 3.6 18:09:49 10° SSW 18:15:12 62° W 18:15:12 62° W
Cosmos 2344 4.4 18:11:23 10° WSW 18:19:06 45° NW 18:23:43 21° N
Cosmos 2263 Rocket 3.9 18:24:07 10° WSW 18:29:00 29° WNW 18:31:43 20° NNW
H-2A R/B 4.2 18:05:03 10° W 18:33:42 50° SSW 18:34:10 50° S
SL-16 R/B 4.5 19:02:08 10° NW 19:03:58 19° NW 19:03:58 19° NW
